[[{"header":{"parameterUnit":"m.s-1","parameterCategory":1,"la1":30.2991,"la2":30.254,"lo1":-89.0895,"lo2":-89.0444,"dy":0.0017,"dx":0.0017,"nx":28,"ny":28,"refTime":"2024-12-25T09:00:00:Z","depth":0,"parameterNumber":2,"parameterNumberName":"U-component_of_WINDS"},"data":[0,0,0,0,0,0,0,0,0,0,0,0,0,0,0,0,0,0,0,0,0,0,0,0,0,0,0,0,0,0,0,0,0,0,0,0,0,0,0,0,0,0,0,0,0,0,0,0,0,0,0,0,0,0,0,0,0,0,-6.6232,-6.6232,0,-6.6196,-6.6196,-6.6195,-6.6016,-6.6011,-6.6007,-6.6003,-6.5969,-6.5972,-6.5975,0,0,0,0,0,0,0,0,0,0,0,0,0,-6.6149,-6.6152,-6.6232,-6.6232,-6.6231,-6.6196,-6.6196,-6.6195,-6.6016,-6.6011,-6.6006,-6.6001,-6.5968,-6.5972,-6.5976,0,0,0,0,0,0,0,0,0,0,0,0,0,-6.6157,-6.6152,-6.6232,-6.6138,-6.6129,-6.6196,-6.6196,-6.6195,-6.6017,-6.6011,-6.6005,-6.5999,-6.5967,-6.5972,-6.5976,-6.6133,0,0,-6.599,-6.5992,0,0,0,0,0,0,0,0,-6.6156,-6.616,-6.6152,-6.6144,-6.6135,-6.6104,-6.6154,-6.6174,-6.6019,-6.606,-6.6003,-6.5996,-6.6019,-6.6019,-6.6027,-6.6131,-6.6129,-6.5991,-6.5993,-6.5995,-6.5997,0,0,0,0,0,0,0,-6.6156,-6.616,-6.6218,-6.6152,-6.6142,-6.6098,-6.6092,-6.6157,-6.6076,-6.6056,-6.6043,-6.6041,-6.6013,-6.6023,-6.6025,-6.6129,-6.599,-6.5995,-6.5997,-6.5999,-6.6359,-6.6365,0,0,0,0,0,0,-6.6169,-6.6161,-6.6219,-6.6217,-6.613,-6.6105,-6.6098,-6.612,-6.6075,-6.6062,-6.6046,-6.6033,-6.6018,-6.6019,-6.6023,-6.6201,-6.5995,-6.6,-6.6002,-6.6352,-6.636,-6.6368,0,0,0,0,0,0,-6.6167,-6.6175,-6.622,-6.6185,-6.6188,-6.6113,-6.6139,-6.6123,-6.6132,-6.6067,-6.6052,-6.607,-6.6013,-6.6016,-6.6106,-6.6198,-6.6002,-6.6006,-6.6344,-6.6355,-6.6364,-6.6562,0,0,0,0,0,0,-6.6166,-6.6176,-6.6234,-6.6188,-6.619,-6.6304,-6.6145,-6.6127,-6.614,-6.6121,-6.6086,-6.6074,-6.6008,-6.61,-6.6111,-6.6201,-6.6009,-6.6336,-6.6349,-6.6361,-6.6547,-6.6577,-6.6604,0,0,0,0,0,-6.6163,-6.6292,-6.6238,-6.6246,-6.6261,-6.631,-6.6311,-6.6232,-6.6148,-6.6206,-6.6165,-6.6075,-6.6187,-6.6111,-6.6121,-6.6214,-6.6329,-6.6345,-6.636,-6.6534,-6.6571,-6.6603,0,0,0,0,0,0,-6.6352,-6.6284,-6.6223,-6.6341,-6.6332,-6.6279,-6.635,-6.6274,-6.629,-6.6273,-6.6174,-6.6168,-6.6272,-6.6252,-6.6169,-6.6363,-6.6243,-6.6261,-6.6372,-6.6407,-6.6435,-6.6437,-6.6013,0,0,0,0,0,-6.6407,-6.6451,-6.639,-6.65,-6.6498,-6.6426,-6.6444,-6.6383,-6.6371,-6.6367,-6.6332,-6.6325,-6.6357,-6.6381,-6.6408,-6.6544,-6.6533,-6.6613,-6.6641,-6.6665,-6.6681,-6.6751,-6.6785,-6.6418,-6.6418,-6.6418,0,0,-6.6521,-6.649,-6.6524,-6.6537,-6.6523,-6.6572,-6.6424,-6.6482,-6.6517,-6.6376,-6.6457,-6.6433,-6.6418,-6.6531,-6.6579,-6.6517,-6.6781,-6.6685,-6.6704,-6.6707,-6.677,-6.6805,-6.6836,-6.6428,-6.6427,-6.6425,0,0,-6.6754,-6.6735,-6.6823,-6.6813,-6.6793,-6.6744,-6.6766,-6.6725,-6.6702,-6.6783,-6.6678,-6.6719,-6.6778,-6.6771,-6.6776,-6.7007,-6.6925,-6.7019,-6.7168,-6.7237,-6.7266,-6.7291,-6.7372,-6.7402,-6.7036,-6.7037,-6.7037,0,-6.6898,-6.6966,-6.6879,-6.6943,-6.6952,-6.6826,-6.6915,-6.6909,-6.6901,-6.691,-6.6841,-6.6912,-6.6894,-6.7003,-6.7059,-6.7068,-6.7089,-6.7022,-6.7268,-6.7293,-6.7315,-6.7391,-6.7422,-6.7048,-6.7047,-6.7046,-6.7044,0,-6.7144,-6.7194,-6.7268,-6.7261,-6.7278,-6.7355,-6.728,-6.7308,-6.7247,-6.7206,-6.729,-6.7263,-6.7282,-6.7304,-6.7245,-6.7405,-6.7367,-6.7286,-6.7162,-6.7363,-6.7433,-6.7461,-6.7064,-6.706,-6.7057,-6.7054,0,0,-6.7493,-6.7437,-6.7466,-6.7461,-6.7431,-6.7467,-6.7539,-6.7556,-6.7582,-6.7582,-6.7639,-6.7692,-6.7616,-6.7621,-6.7561,-6.7622,-6.7805,-6.7531,-6.7529,-6.7582,-6.7979,-6.804,-6.8075,-6.7752,-6.7757,-6.7761,-6.798,0,-6.7714,-6.7831,-6.7755,-6.7884,-6.7928,-6.781,-6.7872,-6.7861,-6.7825,-6.7858,-6.7818,-6.7857,-6.7754,-6.7756,-6.7811,-6.7771,-6.7883,-6.7755,-6.7804,-6.7807,-6.7809,-6.8112,-6.8176,-6.8383,-6.8007,-6.8011,-6.8015,0,-6.7987,-6.7996,-6.813,-6.8091,-6.8106,-6.8163,-6.8173,-6.8206,-6.8192,-6.8161,-6.8168,-6.8092,-6.816,-6.8041,-6.8134,-6.8048,-6.8064,-6.8048,-6.8054,-6.8054,-6.7921,-6.8118,-6.8447,-6.8478,-6.8057,-6.8054,-6.8051,0,-6.8225,-6.8272,-6.8357,-6.8357,-6.8314,-6.8357,-6.8341,-6.832,-6.8336,-6.8345,-6.8354,-6.8373,-6.8382,-6.8398,-6.833,-6.825,-6.8432,-6.8307,-6.8408,-6.841,-6.8449,-6.8447,-6.8784,-6.8464,-6.8464,-6.8463,-6.8462,0,-6.8478,-6.8565,-6.8464,-6.8516,-6.8609,-6.8522,-6.8617,-6.8589,-6.8572,-6.8617,-6.8518,-6.8563,-6.8471,-6.8507,-6.8455,-6.8539,-6.8545,-6.8522,-6.8507,-6.853,-6.8532,-6.8537,-6.852,-6.8471,-6.8469,-6.8468,-6.8466,0,-6.8759,-6.8696,-6.8781,-6.8733,-6.8723,-6.8794,-6.8753,-6.88,-6.8758,-6.8817,-6.8826,-6.876,-6.8797,-6.8731,-6.8761,-6.8726,-6.8843,-6.8806,-6.8847,-6.8836,-6.8939,-6.893,-6.9289,-6.9331,-6.8987,-6.899,-6.8993,0,-6.8924,-6.8987,-6.8946,-6.8969,-6.8958,-6.8997,-6.9012,-6.8929,-6.8949,-6.8938,-6.8986,-6.9015,-6.9034,-6.91,-6.9055,-6.9077,-6.9039,-6.9164,-6.9042,-6.9063,-6.9039,-6.9035,-6.904,-6.9188,-6.9192,-6.9196,-6.9198,0,-6.9222,-6.9188,-6.9212,-6.9226,-6.9246,-6.9254,-6.9254,-6.9279,-6.9192,-6.9219,-6.9256,-6.927,-6.93,-6.933,-6.9342,-6.9326,-6.9249,-6.9238,-6.9262,-6.9285,-6.9305,-6.9293,-6.8913,-6.9229,-6.9226,-6.9224,-6.9222,-6.9221,-6.9448,-6.9498,-6.9477,-6.9508,-6.9499,-6.9502,-6.9544,-6.9506,-6.9535,-6.9551,-6.9502,-6.955,-6.9535,-6.9542,-6.9536,-6.9573,-6.9517,-6.9553,-6.9562,-6.9571,-6.9587,-6.9301,-6.9575,-6.9574,-6.9573,-6.9572,-6.9572,0,-6.9739,-6.972,-6.9749,-6.9752,-6.9777,-6.9701,-6.9698,-6.9723,-6.9767,-6.9759,-6.9779,-6.9821,-6.985,-6.9808,-6.983,-6.9868,-6.9833,-6.9876,-6.9871,-6.9869,-6.9636,-6.9612,-6.9904,-6.9904,-6.9904,-6.9904,-6.9904,-6.9904,-6.9893,-6.9974,-6.9937,-7.0013,-6.9993,-7.0038,-7.0043,-7.0045,-7.0038,-7.0089,-7.0112,-7.0084,-7.0063,-7.0082,-7.0106,-7.0093,-7.0105,-7.0161,-7.0136,-6.9918,-6.9885,-6.9854,-6.9831,-7.0165,-7.0165,-7.0365,-7.0367,-7.0368]},{"header":{"parameterUnit":"m.s-1","parameterCategory":1,"la1":30.2991,"la2":30.254,"lo1":-89.0895,"lo2":-89.0444,"dy":0.0017,"dx":0.0017,"nx":28,"ny":28,"refTime":"2024-12-25T09:00:00:Z","depth":0,"parameterNumber":3,"parameterNumberName":"V-component_of_WINDS"},"data":[0,0,0,0,0,0,0,0,0,0,0,0,0,0,0,0,0,0,0,0,0,0,0,0,0,0,0,0,0,0,0,0,0,0,0,0,0,0,0,0,0,0,0,0,0,0,0,0,0,0,0,0,0,0,0,0,0,0,-0.9998,-0.9998,0,-1.0025,-1.0025,-1.0025,-1.0014,-1.0014,-1.0013,-1.0012,-1.004,-1.0042,-1.0043,0,0,0,0,0,0,0,0,0,0,0,0,0,-0.9937,-0.9938,-0.9998,-0.9999,-0.9999,-1.0025,-1.0025,-1.0025,-1.0014,-1.0014,-1.0013,-1.0012,-1.004,-1.0041,-1.0043,0,0,0,0,0,0,0,0,0,0,0,0,0,-0.9964,-0.9938,-0.9998,-0.9996,-0.9997,-1.0025,-1.0025,-1.0026,-1.0015,-1.0014,-1.0013,-1.0012,-1.0039,-1.0041,-1.0043,-1.0075,0,0,-1.0049,-1.005,0,0,0,0,0,0,0,0,-0.9962,-0.9966,-0.9996,-0.9997,-0.9997,-1.0015,-1.0014,-1.0042,-1.0015,-1.0008,-1.0012,-1.0011,-1.0033,-1.0035,-1.0042,-1.0076,-1.0077,-1.005,-1.0051,-1.0052,-1.0052,0,0,0,0,0,0,0,-0.996,-0.9965,-1.0009,-0.9997,-0.9997,-0.9994,-0.9997,-1.0019,-1.0025,-1.0008,-1.0008,-1.0011,-1.0033,-1.004,-1.0043,-1.0078,-1.005,-1.0051,-1.0053,-1.0053,-1.0137,-1.0138,0,0,0,0,0,0,-0.9958,-0.9963,-1.0008,-1.001,-0.9977,-0.9996,-0.9999,-1.001,-1.0025,-1.0026,-1.0012,-1.001,-1.0038,-1.0041,-1.0044,-1.008,-1.0052,-1.0054,-1.0055,-1.0136,-1.0137,-1.0138,0,0,0,0,0,0,-0.9957,-0.9962,-1.0007,-0.9986,-0.9992,-0.9998,-1.0011,-1.0011,-1.0019,-1.0028,-1.0029,-1.0018,-1.0037,-1.0041,-1.0067,-1.0081,-1.0054,-1.0056,-1.0134,-1.0136,-1.0137,-1.0155,0,0,0,0,0,0,-0.9955,-0.9962,-0.9975,-0.9986,-0.9993,-1.003,-1.0012,-1.0013,-1.0022,-1.0021,-1.0034,-1.0036,-1.0036,-1.0064,-1.0069,-1.0084,-1.0058,-1.0133,-1.0135,-1.0137,-1.0153,-1.0157,-1.016,0,0,0,0,0,-0.9953,-0.9979,-0.9975,-0.9981,-1.0008,-1.003,-1.0034,-1.0034,-1.0024,-1.0036,-1.0041,-1.0035,-1.0079,-1.0066,-1.0072,-1.0088,-1.0132,-1.0135,-1.0137,-1.0151,-1.0156,-1.016,0,0,0,0,0,0,-0.9969,-0.9981,-0.9977,-1.0007,-1.0018,-1.0028,-1.0044,-1.0039,-1.0054,-1.0052,-1.0052,-1.0055,-1.0081,-1.0087,-1.0073,-1.0118,-1.0104,-1.0107,-1.0113,-1.0118,-1.0121,-1.0119,-1.0059,0,0,0,0,0,-0.9976,-0.9993,-1.0002,-1.0028,-1.0034,-1.0038,-1.0048,-1.0047,-1.0058,-1.0063,-1.007,-1.0081,-1.0097,-1.0108,-1.0123,-1.0154,-1.0156,-1.0167,-1.017,-1.0173,-1.0176,-1.0191,-1.0196,-1.0145,-1.0145,-1.0145,0,0,-0.9991,-0.9999,-1.001,-1.0031,-1.004,-1.0057,-1.0042,-1.0061,-1.0074,-1.0066,-1.009,-1.0095,-1.0108,-1.0135,-1.0148,-1.0141,-1.019,-1.0176,-1.0178,-1.018,-1.0194,-1.0199,-1.0203,-1.0147,-1.0147,-1.0146,0,0,-1.0026,-1.0035,-1.0056,-1.0065,-1.0077,-1.0079,-1.0084,-1.0095,-1.0099,-1.0123,-1.0116,-1.0131,-1.016,-1.0168,-1.0176,-1.0212,-1.0207,-1.0218,-1.0236,-1.025,-1.0254,-1.0258,-1.027,-1.0274,-1.022,-1.0221,-1.0221,0,-1.0043,-1.0069,-1.0068,-1.0087,-1.0096,-1.0089,-1.011,-1.0118,-1.0135,-1.0141,-1.0133,-1.0167,-1.0175,-1.0204,-1.0213,-1.022,-1.0225,-1.0216,-1.0254,-1.0257,-1.0261,-1.0272,-1.0277,-1.0222,-1.0222,-1.0221,-1.0221,0,-1.0088,-1.0106,-1.0122,-1.0137,-1.0148,-1.0169,-1.017,-1.0181,-1.0179,-1.0182,-1.0206,-1.0215,-1.0231,-1.0238,-1.0236,-1.0266,-1.0261,-1.0254,-1.0239,-1.0267,-1.0277,-1.0282,-1.0223,-1.0223,-1.0223,-1.0222,0,0,-1.0136,-1.0149,-1.0155,-1.0161,-1.0173,-1.0187,-1.0206,-1.0221,-1.023,-1.0242,-1.0257,-1.028,-1.0272,-1.0282,-1.0281,-1.0294,-1.032,-1.0284,-1.0285,-1.029,-1.0352,-1.0357,-1.0362,-1.0317,-1.0318,-1.0318,-1.0351,0,-1.0171,-1.0205,-1.0204,-1.0235,-1.025,-1.0243,-1.0259,-1.0268,-1.0271,-1.0284,-1.0288,-1.0303,-1.0293,-1.0298,-1.031,-1.0315,-1.0333,-1.0312,-1.0331,-1.0331,-1.0327,-1.0368,-1.0374,-1.0404,-1.0355,-1.0356,-1.0356,0,-1.0218,-1.0229,-1.0262,-1.027,-1.0276,-1.0291,-1.0304,-1.0317,-1.0327,-1.0328,-1.0337,-1.0333,-1.0352,-1.0337,-1.0363,-1.0349,-1.0356,-1.0359,-1.036,-1.0362,-1.0345,-1.037,-1.0414,-1.0418,-1.0363,-1.0362,-1.0362,0,-1.0247,-1.0271,-1.0293,-1.0299,-1.0309,-1.032,-1.0324,-1.0333,-1.0341,-1.0353,-1.0358,-1.0372,-1.0379,-1.039,-1.039,-1.0379,-1.0415,-1.0401,-1.0416,-1.0416,-1.0424,-1.0423,-1.0469,-1.0429,-1.0429,-1.0429,-1.0429,0,-1.0287,-1.0306,-1.0306,-1.032,-1.0341,-1.034,-1.0361,-1.0365,-1.0372,-1.0386,-1.038,-1.0393,-1.0393,-1.0406,-1.0406,-1.0426,-1.043,-1.043,-1.043,-1.0431,-1.043,-1.0435,-1.0433,-1.043,-1.043,-1.043,-1.043,0,-1.0324,-1.0325,-1.0348,-1.0355,-1.0357,-1.0373,-1.0379,-1.0391,-1.0393,-1.041,-1.0414,-1.0417,-1.0432,-1.0433,-1.045,-1.045,-1.0474,-1.0472,-1.0471,-1.047,-1.0485,-1.0483,-1.0535,-1.0541,-1.0498,-1.0499,-1.0499,0,-1.0349,-1.0363,-1.0372,-1.038,-1.0385,-1.0399,-1.0407,-1.0406,-1.0415,-1.0425,-1.0436,-1.045,-1.0461,-1.0485,-1.0489,-1.0502,-1.0499,-1.0516,-1.0501,-1.05,-1.0498,-1.0497,-1.0498,-1.0519,-1.052,-1.052,-1.052,0,-1.0392,-1.0391,-1.0403,-1.0415,-1.0425,-1.0434,-1.0443,-1.045,-1.045,-1.046,-1.0474,-1.0483,-1.05,-1.0513,-1.0525,-1.053,-1.0525,-1.0525,-1.0529,-1.0529,-1.0528,-1.0528,-1.0478,-1.0524,-1.0524,-1.0523,-1.0523,-1.0523,-1.0423,-1.0435,-1.0442,-1.0455,-1.0461,-1.0469,-1.0481,-1.0483,-1.0495,-1.0508,-1.0507,-1.0523,-1.053,-1.0546,-1.0551,-1.0563,-1.0558,-1.0564,-1.0565,-1.0566,-1.0567,-1.0526,-1.0566,-1.0566,-1.0566,-1.0566,-1.0565,0,-1.0465,-1.0469,-1.0481,-1.0493,-1.0503,-1.0496,-1.0505,-1.0514,-1.0528,-1.0535,-1.0546,-1.0561,-1.0574,-1.0578,-1.059,-1.0599,-1.0597,-1.0602,-1.0602,-1.0602,-1.0573,-1.0567,-1.0604,-1.0604,-1.0604,-1.0604,-1.0604,-1.0604,-1.0488,-1.0508,-1.0508,-1.053,-1.0533,-1.0548,-1.0554,-1.0561,-1.0566,-1.0584,-1.0594,-1.0596,-1.0602,-1.0614,-1.0625,-1.0626,-1.0631,-1.0637,-1.0637,-1.0609,-1.0605,-1.0601,-1.0596,-1.0638,-1.0638,-1.0665,-1.0665,-1.0666]}]]